Weather History for Miyakojima, Japan

Change the Weather History Date:

Monday, January 21, 2013

  Actual Average Record
Temperature  
Mean Temperature 71 °F -  
Max Temperature 76 °F 67 °F 76 °F (2013)
Min Temperature 66 °F 60 °F 53 °F (2014)
Cooling Degree Days 6    
Growing Degree Days 21 (Base 50)    
Moisture  
Dew Point 58 °F    
Average Humidity 62    
Maximum Humidity 78    
Minimum Humidity 50    
Precipitation  
Precipitation 0.02 in - - ()
Sea Level Pressure  
Sea Level Pressure 30.16 in    
Wind  
Wind Speed 10 mph ()    
Max Wind Speed 20 mph    
Max Gust Speed -    
Visibility 8.4 miles    
Events Rain    
Averages and records for this station are not official NWS values.
T = Trace of Precipitation, MM = Missing Value Source: Averaged Metar Reports

Daily Weather History Graph

Daily Weather History Graph

Search for Another Location

Airport:

Trip Planner

Search our weather history database for the weather conditions in past years. The results will help you decide how hot, cold, wet, or windy it might be!

Date:

Astronomy

Jan. 21, 2013 Rise Set
Actual Time 7:24 AM JST 6:15 PM JST
Civil Twilight 7:00 AM JST 6:40 PM JST
Nautical Twilight 6:32 AM JST 7:07 PM JST
Astronomical Twilight 6:05 AM JST 7:35 PM JST
Moon 1:32 PM JST 2:21 AM JST
Length of Visible Light 11h 39m
Length of Day
10h 51m
Waxing Gibbous, 70% of the Moon is Illuminated
Jan 21
Waxing Gibbous
Jan 27
Full
Feb 3
Last Quarter
Feb 10
New
Feb 18
First Quarter

Hourly Weather History & Observations

Time (JST) Temp. Dew Point Humidity Pressure Visibility Wind Dir Wind Speed Gust Speed Precip Events Conditions
12:00 AM 67 °F 58 °F 66% 30.25 in - SE 10.4 mph - -  
3:00 AM 67 °F 57 °F 63% 30.21 in 19 mi SSE 10.4 mph - -   Scattered Clouds
6:00 AM 68 °F 57 °F 60% 30.20 in 19 mi SSE 8.1 mph - -   Partly Cloudy
6:30 AM 68.0 °F 55.4 °F 64% 30.18 in 6.2 mi SSE 11.5 mph - N/A   Partly Cloudy
7:00 AM 68.0 °F 55.4 °F 64% 30.18 in 6.2 mi SSE 11.5 mph - N/A   Partly Cloudy
8:00 AM 68.0 °F 55.4 °F 64% 30.18 in 6.2 mi SE 6.9 mph - N/A   Partly Cloudy
9:00 AM 69 °F 59 °F 63% 30.24 in 25 mi SE 6.9 mph - -   Mostly Cloudy
9:00 AM 69.8 °F 57.2 °F 64% 30.21 in 6.2 mi ESE 8.1 mph - N/A   Scattered Clouds
10:00 AM 71.6 °F 57.2 °F 60% 30.21 in 6.2 mi SSE 15.0 mph - N/A   Partly Cloudy
11:00 AM 73.4 °F 57.2 °F 57% 30.18 in 6.2 mi SSE 18.4 mph - N/A   Partly Cloudy
12:00 PM 74 °F 59 °F 50% 30.20 in 25 mi SSE 16.1 mph - -   Clear
12:00 PM 73.4 °F 57.2 °F 57% 30.15 in 6.2 mi SE 19.6 mph - N/A   Partly Cloudy
1:00 PM 73.4 °F 57.2 °F 57% 30.12 in 6.2 mi SSE 18.4 mph - N/A   Mostly Cloudy
2:00 PM 75.2 °F 57.2 °F 53% 30.12 in 6.2 mi SSE 16.1 mph - N/A   Scattered Clouds
3:00 PM 76 °F 62 °F 54% 30.14 in 25 mi South 15.0 mph - -   Mostly Cloudy
3:00 PM 73.4 °F 59.0 °F 61% 30.12 in 6.2 mi SSE 15.0 mph - N/A   Scattered Clouds
4:00 PM 73.4 °F 57.2 °F 57% 30.09 in 6.2 mi SSE 16.1 mph - N/A   Scattered Clouds
5:00 PM 71.6 °F 59.0 °F 64% 30.12 in 6.2 mi South 13.8 mph - N/A   Mostly Cloudy
6:00 PM 72 °F 61 °F 61% 30.15 in 19 mi South 8.1 mph - -   Partly Cloudy
6:00 PM 71.6 °F 59.0 °F 64% 30.12 in 6.2 mi South 11.5 mph - N/A   Mostly Cloudy
7:00 PM 71.6 °F 59.0 °F 64% 30.12 in 6.2 mi South 6.9 mph - N/A   Mostly Cloudy
8:00 PM 69.8 °F 60.8 °F 73% 30.12 in 6.2 mi South 8.1 mph - N/A   Mostly Cloudy
9:00 PM 69 °F 64 °F 78% 30.17 in 9 mi SSW 9.2 mph - - Rain Light Rain Showers